Date String (YYYY-MM-DD hh:mm:ss) UTC,Instrument flags,absolute air pressure of the measurement (hPa),sample flow rate (lpm),inlet stack bypass flow (lpm),air temperature of the measurement (°C),ambient temperature measured by the external sensor (°C),aerosol sample conditioner tube jacket temperature (°C),OPC LED temperature (°C),internal box temperature (°C),relative humidity of the measurement (%),span deviation,mass concentration of particles derived from Lorenz-Mie calculation of OPC scattering (μg/m³),mass concentration of particles derived from Lorenz-Mie calculation of OPC scattering (μg/m³),mass concentration of particles derived from Lorenz-Mie calculation of OPC scattering (μg/m³)
DateTimeUTC,F1_M11,P_M11,Q1_M11,Q2_M11,T1_M11,T2_M11,T3_M11,T4_M11,T5_M11,U1_M11,ZSPAN_M11,X2_M11,X0_M11,X1_M11
2023-11-05 23:00:00,SystemResetWarning,0824.9,5.01,000.00,027.7,023.9,000.0,035.7,029.0,9.0,0000.0,0002.35,0003.77,0001.94
2023-11-05 23:01:00,SystemResetWarning,0825.0,5.01,000.00,027.6,023.6,000.0,035.7,028.8,9.1,0000.0,0002.38,0004.30,0001.96
2023-11-05 23:02:00,SystemResetWarning,0825.0,4.99,000.00,027.4,023.9,000.0,035.7,028.5,9.2,0000.0,0002.40,0004.57,0001.97
2023-11-05 23:03:00,SystemResetWarning,0824.9,5.00,000.00,027.3,024.4,000.0,035.6,028.4,9.1,0000.0,0002.40,0004.39,0001.99
2023-11-05 23:04:00,SystemResetWarning,0824.9,4.99,000.00,027.3,024.8,000.0,035.6,028.6,9.1,0000.0,0002.39,0004.37,0001.99
2023-11-05 23:05:00,SystemResetWarning,0824.9,5.00,000.00,027.3,025.2,000.0,035.6,028.7,9.1,0000.0,0002.41,0004.53,0002.00
2023-11-05 23:06:00,SystemResetWarning,0825.0,5.00,000.00,027.3,025.6,000.0,035.6,028.8,9.1,0000.0,0002.38,0004.54,0002.01
2023-11-05 23:07:00,SystemResetWarning,0825.0,4.99,000.00,027.4,025.8,000.0,035.6,028.9,9.0,0000.0,0002.36,0004.48,0002.02
2023-11-05 23:08:00,SystemResetWarning,0825.0,5.00,000.00,027.4,026.1,000.0,035.6,029.0,9.1,0000.0,0002.36,0004.43,0002.04
2023-11-05 23:09:00,SystemResetWarning,0825.1,5.00,000.00,027.5,026.3,000.0,035.6,029.1,9.0,0000.0,0002.35,0004.22,0002.04
2023-11-05 23:10:00,SystemResetWarning,0825.1,5.00,000.00,027.5,026.5,000.0,035.6,029.2,9.0,0000.0,0002.35,0003.87,0002.05
2023-11-05 23:11:00,SystemResetWarning,0825.1,5.01,000.00,027.6,026.6,000.0,035.7,029.3,9.0,0000.0,0002.38,0003.94,0002.06
2023-11-05 23:12:00,SystemResetWarning,0825.1,5.00,000.00,027.6,026.8,000.0,035.7,029.3,9.0,0000.0,0002.37,0003.44,0002.07
2023-11-05 23:13:00,SystemResetWarning,0825.2,5.00,000.00,027.7,026.9,000.0,035.7,029.4,9.1,0000.0,0002.40,0003.22,0002.08
2023-11-05 23:14:00,SystemResetWarning,0825.2,4.99,000.00,027.7,027.0,000.0,035.8,029.4,9.0,0000.0,0002.42,0003.26,0002.08
2023-11-05 23:15:00,SystemResetWarning,0825.3,5.00,000.00,027.8,027.1,000.0,035.8,029.5,8.8,0000.0,0002.41,0003.20,0002.08
2023-11-05 23:16:00,SystemResetWarning,0825.2,4.99,000.00,027.8,026.0,000.0,035.8,029.5,8.8,0000.0,0002.39,0003.02,0002.09
2023-11-05 23:17:00,SystemResetWarning,0825.2,5.00,000.00,027.7,024.0,000.0,035.8,029.0,9.0,0000.0,0002.40,0002.89,0002.10
2023-11-05 23:18:00,SystemResetWarning,0825.2,5.01,000.00,027.6,023.5,000.0,035.7,028.8,9.0,0000.0,0002.44,0002.98,0002.11
2023-11-05 23:19:00,SystemResetWarning,0825.2,5.01,000.00,027.5,023.9,000.0,035.7,028.5,9.1,0000.0,0002.47,0003.39,0002.12
2023-11-05 23:20:00,SystemResetWarning,0825.1,5.00,000.00,027.4,024.3,000.0,035.7,028.4,9.0,0000.0,0002.50,0003.52,0002.12
2023-11-05 23:21:00,SystemResetWarning,0825.1,4.99,000.00,027.3,024.8,000.0,035.6,028.5,9.1,0000.0,0002.49,0003.47,0002.13
2023-11-05 23:22:00,SystemResetWarning,0825.2,5.00,000.00,027.3,025.1,000.0,035.6,028.7,9.1,0000.0,0002.47,0003.38,0002.13
2023-11-05 23:23:00,SystemResetWarning,0825.2,5.00,000.00,027.3,025.5,000.0,035.6,028.8,9.1,0000.0,0002.48,0003.43,0002.13
2023-11-05 23:24:00,SystemResetWarning,0825.2,5.01,000.00,027.4,025.8,000.0,035.6,028.9,9.1,0000.0,0002.47,0003.40,0002.13
2023-11-05 23:25:00,SystemResetWarning,0825.3,5.00,000.00,027.4,026.0,000.0,035.6,029.0,9.1,0000.0,0002.42,0003.29,0002.13
2023-11-05 23:26:00,SystemResetWarning,0825.3,5.00,000.00,027.5,026.2,000.0,035.6,029.0,9.1,0000.0,0002.45,0003.35,0002.16
2023-11-05 23:27:00,SystemResetWarning,0825.3,5.00,000.00,027.5,026.4,000.0,035.6,029.1,9.2,0000.0,0002.49,0003.44,0002.17
2023-11-05 23:28:00,SystemResetWarning,0825.2,5.01,000.00,027.5,026.6,000.0,035.7,029.2,9.2,0000.0,0002.49,0003.45,0002.17
2023-11-05 23:29:00,SystemResetWarning,0825.2,5.00,000.00,027.6,026.7,000.0,035.7,029.3,9.2,0000.0,0002.48,0003.43,0002.17
2023-11-05 23:30:00,SystemResetWarning,0825.3,5.00,000.00,027.6,026.8,000.0,035.7,029.3,9.2,0000.0,0002.47,0003.25,0002.16
2023-11-05 23:31:00,SystemResetWarning,0825.3,5.00,000.00,027.7,026.9,000.0,035.7,029.4,9.1,0000.0,0002.46,0004.12,0002.16
2023-11-05 23:32:00,SystemResetWarning,0825.2,5.00,000.00,027.7,027.0,000.0,035.8,029.4,9.1,0000.0,0002.46,0004.59,0002.16
2023-11-05 23:33:00,SystemResetWarning,0825.2,4.99,000.00,027.8,027.1,000.0,035.8,029.5,9.1,0000.0,0002.48,0005.02,0002.16
2023-11-05 23:34:00,SystemResetWarning,0825.2,4.99,000.00,027.8,027.0,000.0,035.8,029.5,9.2,0000.0,0002.48,0006.51,0002.15
2023-11-05 23:35:00,SystemResetWarning,0825.2,5.00,000.00,027.8,025.2,000.0,035.8,029.3,9.1,0000.0,0002.47,0006.72,0002.13
2023-11-05 23:36:00,SystemResetWarning,0825.2,5.00,000.00,027.7,023.5,000.0,035.8,028.9,9.1,0000.0,0002.48,0006.97,0002.12
2023-11-05 23:37:00,SystemResetWarning,0825.2,5.02,000.00,027.6,023.4,000.0,035.7,028.7,9.1,0000.0,0002.42,0006.93,0002.08
2023-11-05 23:38:00,SystemResetWarning,0825.2,4.99,000.00,027.4,023.8,000.0,035.7,028.4,9.2,0000.0,0002.38,0006.88,0002.06
2023-11-05 23:39:00,SystemResetWarning,0825.2,4.99,000.00,027.3,024.3,000.0,035.7,028.4,9.3,0000.0,0002.38,0006.92,0002.05
2023-11-05 23:40:00,SystemResetWarning,0825.1,5.00,000.00,027.3,024.7,000.0,035.6,028.5,9.4,0000.0,0002.37,0006.96,0002.05
2023-11-05 23:41:00,SystemResetWarning,0825.1,5.00,000.00,027.3,025.1,000.0,035.6,028.6,9.4,0000.0,0002.34,0006.91,0002.04
2023-11-05 23:42:00,SystemResetWarning,0825.1,5.01,000.00,027.3,025.4,000.0,035.6,028.7,9.4,0000.0,0002.36,0006.15,0002.05
2023-11-05 23:43:00,SystemResetWarning,0825.1,5.00,000.00,027.3,025.7,000.0,035.6,028.8,9.4,0000.0,0002.36,0005.40,0002.05
2023-11-05 23:44:00,SystemResetWarning,0825.2,4.99,000.00,027.3,025.9,000.0,035.6,028.8,9.4,0000.0,0002.39,0005.48,0002.06
2023-11-05 23:45:00,SystemResetWarning,0825.2,4.99,000.00,027.4,026.1,000.0,035.6,028.9,9.4,0000.0,0002.46,0004.57,0002.07
2023-11-05 23:46:00,SystemResetWarning,0825.2,5.00,000.00,027.4,026.3,000.0,035.6,029.0,9.5,0000.0,0002.49,0004.51,0002.07
2023-11-05 23:47:00,SystemResetWarning,0825.2,5.00,000.00,027.4,026.4,000.0,035.6,029.0,9.4,0000.0,0002.51,0004.30,0002.09
2023-11-05 23:48:00,SystemResetWarning,0825.2,5.00,000.00,027.5,026.5,000.0,035.6,029.1,9.3,0000.0,0002.56,0004.51,0002.11
2023-11-05 23:49:00,SystemResetWarning,0825.3,5.00,000.00,027.5,026.6,000.0,035.7,029.1,9.3,0000.0,0002.56,0004.44,0002.12
2023-11-05 23:50:00,SystemResetWarning,0825.2,5.00,000.00,027.6,026.7,000.0,035.7,029.2,9.2,0000.0,0002.54,0004.37,0002.12
2023-11-05 23:51:00,SystemResetWarning,0825.2,5.00,000.00,027.6,026.8,000.0,035.7,029.2,9.2,0000.0,0002.57,0004.33,0002.13
2023-11-05 23:52:00,SystemResetWarning,0825.2,5.00,000.00,027.6,026.9,000.0,035.7,029.3,9.2,0000.0,0002.57,0004.34,0002.14
2023-11-05 23:53:00,SystemResetWarning,0825.2,5.00,000.00,027.7,026.9,000.0,035.8,029.3,9.1,0000.0,0002.57,0004.32,0002.14
2023-11-05 23:54:00,SystemResetWarning,0825.2,5.00,000.00,027.7,027.0,000.0,035.8,029.4,9.1,0000.0,0002.59,0004.31,0002.16
2023-11-05 23:55:00,SystemResetWarning,0825.3,5.00,000.00,027.8,027.1,000.0,035.8,029.4,9.1,0000.0,0002.59,0004.33,0002.16
2023-11-05 23:56:00,SystemResetWarning,0825.3,4.99,000.00,027.8,027.1,000.0,035.9,029.5,9.1,0000.0,0002.50,0003.82,0002.16
2023-11-05 23:57:00,SystemResetWarning,0825.3,5.00,000.00,027.9,026.9,000.0,035.9,029.5,9.1,0000.0,0002.48,0003.55,0002.18
2023-11-05 23:58:00,SystemResetWarning,0825.3,5.00,000.00,027.8,024.9,000.0,035.9,029.3,9.1,0000.0,0002.47,0003.78,0002.17
2023-11-05 23:59:00,SystemResetWarning,0825.3,5.01,000.00,027.7,023.3,000.0,035.8,028.9,9.1,0000.0,0002.46,0003.68,0002.17
